[[{"header":{"parameterUnit":"m.s-1","parameterCategory":2,"la1":30.2991,"la2":30.254,"lo1":-89.0895,"lo2":-89.0444,"dy":0.0017,"dx":0.0017,"nx":28,"ny":28,"refTime":"2025-04-18T21:00:00:Z","depth":"0","parameterNumber":2,"parameterNumberName":"U-component_of_CURRENTS"},"data":[0,0,0,0,0,0,0,0,0,0,0,0,0,0,0,0,0,0,0,0,0,0,0,0,0,0,0,0,0,0,0,0,0,0,0,0,0,0,0,0,0,0,0,0,0,0,0,0,0,0,0,0,0,0,0,0,0,0,0.12,0.12,0,0.1218,0.1218,0.1218,0.122,0.122,0.1219,0.1219,0.1218,0.1218,0.1218,0,0,0,0,0,0,0,0,0,0,0,0,0,0.1169,0.117,0.12,0.12,0.12,0.1218,0.1218,0.1218,0.122,0.122,0.1219,0.1219,0.1218,0.1218,0.1218,0,0,0,0,0,0,0,0,0,0,0,0,0,0.1184,0.117,0.12,0.1204,0.1204,0.1218,0.1218,0.1218,0.122,0.122,0.1219,0.1219,0.1218,0.1218,0.1218,0.1222,0,0,0.1218,0.1218,0,0,0,0,0,0,0,0,0.1183,0.1185,0.1203,0.1204,0.1204,0.1217,0.1207,0.1219,0.122,0.1213,0.1219,0.1219,0.1216,0.1217,0.122,0.1222,0.1222,0.1218,0.1218,0.1218,0.1218,0,0,0,0,0,0,0,0.1182,0.1184,0.1206,0.1203,0.1204,0.1206,0.1208,0.1209,0.1215,0.1214,0.1214,0.1217,0.1216,0.1219,0.1219,0.1222,0.1218,0.1218,0.1218,0.1218,0.1228,0.1228,0,0,0,0,0,0,0.1181,0.1183,0.1206,0.1207,0.1194,0.1207,0.1208,0.1213,0.1215,0.1216,0.1218,0.1217,0.1219,0.1219,0.1219,0.1226,0.1218,0.1218,0.1219,0.1228,0.1228,0.1229,0,0,0,0,0,0,0.1181,0.1183,0.1205,0.1196,0.1199,0.1207,0.1212,0.1213,0.1218,0.1218,0.1218,0.1221,0.1219,0.1219,0.1224,0.1226,0.1219,0.1219,0.1228,0.1228,0.1228,0.1238,0,0,0,0,0,0,0.118,0.1183,0.1186,0.1196,0.1199,0.1216,0.1212,0.1214,0.1221,0.1221,0.1222,0.1221,0.1219,0.1224,0.1224,0.1226,0.1219,0.1228,0.1228,0.1228,0.1238,0.1239,0.124,0,0,0,0,0,0.1179,0.1184,0.1186,0.1189,0.1203,0.1216,0.1218,0.1223,0.1221,0.1226,0.1226,0.1221,0.1226,0.1224,0.1225,0.1226,0.1227,0.1228,0.1228,0.1237,0.1238,0.124,0,0,0,0,0,0,0.1171,0.1185,0.1187,0.1196,0.1207,0.1217,0.1223,0.1225,0.1229,0.1229,0.1226,0.1226,0.123,0.1228,0.1226,0.123,0.1225,0.1226,0.1232,0.1233,0.1234,0.1259,0.1219,0,0,0,0,0,0.1172,0.118,0.1192,0.12,0.1206,0.1214,0.122,0.1224,0.123,0.1232,0.1231,0.1231,0.1232,0.1233,0.1234,0.1238,0.1303,0.1238,0.1239,0.124,0.126,0.1385,0.14,0.123,0.123,0.123,0,0,0.117,0.118,0.1183,0.1199,0.1207,0.1216,0.1217,0.1229,0.1234,0.1231,0.1236,0.1236,0.1235,0.1239,0.124,0.1237,0.1319,0.1241,0.1241,0.1262,0.1387,0.1404,0.142,0.123,0.123,0.123,0,0,0.1172,0.1181,0.1189,0.1199,0.1215,0.1221,0.1225,0.1236,0.1239,0.1246,0.1244,0.1252,0.1247,0.1253,0.1253,0.1263,0.1322,0.1254,0.1279,0.1399,0.1415,0.143,0.1527,0.1551,0.1253,0.1253,0.1253,0,0.1169,0.1181,0.1193,0.1204,0.1213,0.1223,0.1232,0.1238,0.1248,0.1262,0.1248,0.1276,0.1258,0.1287,0.1277,0.1267,0.1348,0.1272,0.1405,0.1421,0.1437,0.1533,0.1559,0.1254,0.1254,0.1254,0.1254,0,0.1177,0.1187,0.1194,0.121,0.1221,0.1233,0.1244,0.1256,0.1259,0.1272,0.1304,0.13,0.133,0.1307,0.1287,0.1372,0.1398,0.1396,0.1409,0.1455,0.1552,0.1579,0.1255,0.1254,0.1254,0.1254,0,0,0.1167,0.1194,0.1196,0.1207,0.1227,0.1238,0.1253,0.128,0.1315,0.1318,0.1379,0.1353,0.1381,0.1384,0.1376,0.1446,0.1592,0.1464,0.147,0.1573,0.187,0.1822,0.1847,0.1635,0.164,0.1643,0.1892,0,0.1169,0.119,0.1203,0.1222,0.1234,0.1254,0.1272,0.1299,0.1332,0.1395,0.1411,0.1461,0.1404,0.1437,0.15,0.158,0.1667,0.1525,0.1799,0.1807,0.177,0.1878,0.1856,0.2072,0.1919,0.1924,0.1927,0,0.1171,0.1187,0.1205,0.124,0.1248,0.1261,0.1319,0.1341,0.1422,0.1458,0.1527,0.1568,0.1655,0.1612,0.1804,0.1729,0.1806,0.1857,0.1869,0.1845,0.181,0.2002,0.2128,0.205,0.1969,0.1966,0.1963,0,0.1161,0.1189,0.1205,0.1214,0.1252,0.127,0.1294,0.136,0.1403,0.1528,0.1601,0.1711,0.1795,0.1917,0.1989,0.1942,0.2216,0.2173,0.2203,0.22,0.2245,0.2237,0.2342,0.2342,0.2342,0.2341,0.234,0,0.1159,0.1171,0.1203,0.1211,0.1235,0.1271,0.1321,0.1368,0.1475,0.1552,0.1645,0.1749,0.1885,0.2031,0.2089,0.2237,0.2315,0.225,0.2281,0.2241,0.223,0.2211,0.216,0.235,0.2348,0.2346,0.2345,0,0.1142,0.1163,0.118,0.1218,0.1227,0.1247,0.1312,0.1368,0.1474,0.1597,0.1652,0.1839,0.2033,0.2148,0.2361,0.237,0.2447,0.2527,0.2448,0.2464,0.2378,0.2327,0.2397,0.2312,0.2636,0.2637,0.2638,0,0.1133,0.1141,0.1169,0.1175,0.1189,0.1222,0.1252,0.1347,0.142,0.1635,0.1708,0.1939,0.207,0.2359,0.2466,0.2621,0.25,0.2656,0.2536,0.2406,0.2377,0.223,0.2141,0.2613,0.2613,0.2613,0.2613,0,0.1112,0.1122,0.1134,0.1147,0.1169,0.1197,0.1257,0.131,0.1448,0.1572,0.1762,0.1893,0.218,0.2352,0.2541,0.2611,0.2524,0.266,0.259,0.2426,0.222,0.2141,0.2386,0.2615,0.2615,0.2615,0.2615,0.2615,0.1086,0.1088,0.1104,0.1115,0.1135,0.1169,0.1187,0.128,0.1387,0.1564,0.1726,0.1901,0.221,0.2482,0.2529,0.2611,0.2527,0.2572,0.2548,0.2428,0.226,0.2472,0.2671,0.2671,0.2671,0.2672,0.2672,0,0.1053,0.1062,0.1073,0.1084,0.1091,0.1119,0.1188,0.1225,0.1323,0.15,0.1654,0.1954,0.2178,0.2386,0.2603,0.2532,0.2394,0.2462,0.2282,0.2216,0.2511,0.2417,0.249,0.249,0.2491,0.2491,0.2491,0.2491,0.1035,0.1037,0.105,0.1039,0.1044,0.1054,0.108,0.1153,0.1265,0.1442,0.1595,0.1762,0.2114,0.2459,0.2526,0.2468,0.2225,0.2164,0.2068,0.2307,0.2314,0.2321,0.222,0.2251,0.225,0.1705,0.1701,0.1698]},{"header":{"parameterUnit":"m.s-1","parameterCategory":2,"la1":30.2991,"la2":30.254,"lo1":-89.0895,"lo2":-89.0444,"dy":0.0017,"dx":0.0017,"nx":28,"ny":28,"refTime":"2025-04-18T21:00:00:Z","depth":"0","parameterNumber":3,"parameterNumberName":"V-component_of_CURRENTS"},"data":[0,0,0,0,0,0,0,0,0,0,0,0,0,0,0,0,0,0,0,0,0,0,0,0,0,0,0,0,0,0,0,0,0,0,0,0,0,0,0,0,0,0,0,0,0,0,0,0,0,0,0,0,0,0,0,0,0,0,-0.0092,-0.0093,0,-0.0155,-0.0155,-0.0156,-0.0181,-0.018,-0.018,-0.018,-0.0256,-0.0258,-0.026,0,0,0,0,0,0,0,0,0,0,0,0,0,-0.0019,-0.002,-0.0092,-0.0093,-0.0094,-0.0154,-0.0155,-0.0156,-0.0181,-0.018,-0.018,-0.018,-0.0255,-0.0258,-0.0261,0,0,0,0,0,0,0,0,0,0,0,0,0,-0.0063,-0.0021,-0.0092,-0.0113,-0.0116,-0.0154,-0.0155,-0.0156,-0.0181,-0.018,-0.018,-0.018,-0.0254,-0.0258,-0.0261,-0.0287,0,0,-0.0271,-0.0273,0,0,0,0,0,0,0,0,-0.0061,-0.0066,-0.0109,-0.0112,-0.0115,-0.0159,-0.0158,-0.0201,-0.0181,-0.0156,-0.018,-0.018,-0.0225,-0.0231,-0.0243,-0.0291,-0.0294,-0.0271,-0.0273,-0.0275,-0.0276,0,0,0,0,0,0,0,-0.0058,-0.0064,-0.0117,-0.011,-0.0113,-0.0128,-0.0133,-0.0166,-0.0192,-0.0158,-0.016,-0.0167,-0.0226,-0.024,-0.0245,-0.0295,-0.0271,-0.0274,-0.0276,-0.0278,-0.0379,-0.038,0,0,0,0,0,0,-0.0049,-0.0061,-0.0115,-0.0119,-0.0086,-0.0129,-0.0136,-0.0145,-0.0191,-0.0198,-0.0167,-0.0168,-0.0235,-0.0241,-0.0248,-0.0286,-0.0275,-0.0278,-0.028,-0.0379,-0.038,-0.038,0,0,0,0,0,0,-0.0047,-0.0053,-0.0113,-0.0091,-0.0099,-0.013,-0.0141,-0.0147,-0.0159,-0.0198,-0.0204,-0.0173,-0.0235,-0.0243,-0.0281,-0.0289,-0.0279,-0.0282,-0.0378,-0.0379,-0.038,-0.0359,0,0,0,0,0,0,-0.0045,-0.0052,-0.0057,-0.009,-0.01,-0.0136,-0.0142,-0.0148,-0.0164,-0.0165,-0.0206,-0.0212,-0.0235,-0.0276,-0.0285,-0.0293,-0.0285,-0.0377,-0.0378,-0.038,-0.0359,-0.0359,-0.036,0,0,0,0,0,-0.0042,-0.0051,-0.0057,-0.0064,-0.0106,-0.0137,-0.0143,-0.0164,-0.0164,-0.0173,-0.0202,-0.0211,-0.0291,-0.028,-0.0289,-0.0299,-0.0376,-0.0378,-0.038,-0.0359,-0.0359,-0.036,0,0,0,0,0,0,-0.0025,-0.0056,-0.0062,-0.0081,-0.0106,-0.014,-0.0152,-0.0163,-0.0192,-0.0193,-0.0224,-0.0233,-0.0268,-0.0289,-0.0277,-0.0333,-0.0334,-0.0338,-0.0315,-0.0316,-0.0316,-0.0259,-0.0288,0,0,0,0,0,-0.0022,-0.0036,-0.0067,-0.0082,-0.0092,-0.012,-0.0134,-0.0148,-0.0178,-0.0189,-0.0219,-0.0252,-0.0283,-0.0303,-0.0335,-0.0369,-0.0323,-0.0381,-0.0381,-0.0381,-0.0342,-0.0271,-0.0259,-0.0386,-0.0386,-0.0386,0,0,-0.002,-0.0038,-0.0047,-0.0079,-0.0098,-0.0117,-0.0128,-0.015,-0.0163,-0.0194,-0.0224,-0.0255,-0.0293,-0.0329,-0.0346,-0.0347,-0.0329,-0.0383,-0.0383,-0.0343,-0.0271,-0.0258,-0.0246,-0.0387,-0.0387,-0.0386,0,0,-0.0022,-0.0038,-0.0049,-0.0069,-0.0097,-0.0115,-0.0119,-0.0154,-0.0165,-0.02,-0.0223,-0.0248,-0.0309,-0.0327,-0.0346,-0.0367,-0.0332,-0.0391,-0.0348,-0.0281,-0.0268,-0.0257,-0.0203,-0.0187,-0.0393,-0.0393,-0.0393,0,-0.0016,-0.0034,-0.0058,-0.0074,-0.0083,-0.0111,-0.012,-0.0144,-0.0187,-0.0175,-0.0207,-0.0244,-0.0301,-0.0302,-0.0327,-0.0364,-0.0315,-0.0344,-0.0276,-0.0263,-0.0251,-0.0199,-0.0181,-0.0392,-0.0392,-0.0393,-0.0393,0,-0.0028,-0.0041,-0.0049,-0.0075,-0.009,-0.0104,-0.0132,-0.0141,-0.0158,-0.0164,-0.0164,-0.0222,-0.022,-0.0273,-0.0318,-0.0273,-0.0262,-0.028,-0.0262,-0.0236,-0.0185,-0.0166,-0.0391,-0.0392,-0.0392,-0.0392,0,0,-0.0013,-0.0048,-0.005,-0.0045,-0.0086,-0.0089,-0.0107,-0.0105,-0.0053,-0.0117,-0.004,-0.0152,-0.0134,-0.0153,-0.0199,-0.0178,-0.0103,-0.0196,-0.0193,-0.012,0.006,0.0006,0.0021,-0.0093,-0.0089,-0.0086,0.0057,0,-0.0009,-0.0024,-0.0046,-0.0047,-0.005,-0.0066,-0.0056,-0.0054,-0.0038,0.0028,-0.0012,0.0034,-0.0102,-0.0066,-0.0076,-0.0066,-0.0048,-0.0139,0.0006,0.0011,-0.0021,0.0043,0.0,0.012,0.0075,0.0078,0.0081,0,-0.0008,-0.0014,-0.0016,0.0008,0.0012,0.0013,0.0079,0.0089,0.0158,0.0191,0.0226,0.0233,0.025,0.0152,0.0177,0.0137,0.0102,0.0083,0.0089,0.0057,-0.0007,0.0088,0.0156,-0.0013,0.011,0.0107,0.0105,0,0.0031,0.0018,0.0029,0.0024,0.0035,0.0061,0.0085,0.0146,0.0232,0.0338,0.0453,0.0451,0.0526,0.0475,0.0377,0.032,0.043,0.0354,0.0268,0.0263,0.0267,0.0257,0.0215,0.0392,0.0392,0.0391,0.0391,0,0.005,0.0064,0.0057,0.0063,0.0128,0.0124,0.0247,0.0278,0.0426,0.0591,0.0566,0.0714,0.0621,0.0648,0.051,0.0458,0.0537,0.0317,0.0314,0.0265,0.0253,0.0136,0.0035,0.0397,0.0396,0.0395,0.0394,0,0.009,0.0075,0.0099,0.0122,0.0144,0.0197,0.0347,0.0486,0.0584,0.082,0.0883,0.098,0.1005,0.0872,0.0832,0.0671,0.0503,0.0541,0.0473,0.0458,0.019,0.0092,0.013,0.0041,0.0509,0.0509,0.0508,0,0.0108,0.0117,0.0149,0.0201,0.0216,0.0313,0.0436,0.0552,0.0733,0.0983,0.114,0.1229,0.1292,0.1186,0.092,0.0714,0.0533,0.0555,0.0408,0.0206,0.0097,0.0046,-0.0037,0.0421,0.042,0.0419,0.0419,0,0.0149,0.0155,0.018,0.0298,0.0408,0.056,0.0737,0.0891,0.1092,0.1279,0.1535,0.1595,0.146,0.125,0.0935,0.0756,0.0423,0.0533,0.0368,0.0073,-0.002,-0.0118,0.0278,0.0412,0.0413,0.0413,0.0414,0.0414,0.0191,0.0228,0.0294,0.0422,0.0571,0.0819,0.0972,0.1184,0.1451,0.1729,0.1792,0.1877,0.1531,0.1083,0.0826,0.0341,0.0354,0.0186,0.0104,0.0088,-0.0064,0.0301,0.0386,0.0386,0.0386,0.0387,0.0387,0,0.0264,0.0328,0.0441,0.0627,0.0862,0.0911,0.1208,0.1375,0.1663,0.1843,0.2014,0.1872,0.1439,0.0971,0.0324,-0.002,-0.0155,-0.0192,-0.0284,-0.0336,0.0041,-0.0038,-0.0096,-0.0096,-0.0096,-0.0096,-0.0095,-0.0095,0.031,0.0433,0.0511,0.0882,0.1038,0.1343,0.151,0.1694,0.183,0.2,0.2016,0.2015,0.1666,0.0569,-0.0198,-0.0374,-0.0635,-0.0665,-0.0768,-0.0558,-0.053,-0.0503,-0.0602,-0.0777,-0.0778,-0.1125,-0.1129,-0.1132]}],[{"header":{"parameterUnit":"m.s-1","parameterCategory":2,"la1":30.2991,"la2":30.254,"lo1":-89.0895,"lo2":-89.0444,"dy":0.0017,"dx":0.0017,"nx":28,"ny":28,"refTime":"2025-04-18T21:00:00:Z","depth":"2","parameterNumber":2,"parameterNumberName":"U-component_of_CURRENTS"},"data":[0,0,0,0,0,0,0,0,0,0,0,0,0,0,0,0,0,0,0,0,0,0,0,0,0,0,0,0,0,0,0,0,0,0,0,0,0,0,0,0,0,0,0,0,0,0,0,0,0,0,0,0,0,0,0,0,0,0,0.1278,0.1278,0,0.1299,0.1299,0.1299,0.1302,0.1302,0.1302,0.1302,0.1306,0.1306,0.1306,0,0,0,0,0,0,0,0,0,0,0,0,0,0.1243,0.1244,0.1278,0.1278,0.1279,0.1299,0.1299,0.1299,0.1302,0.1302,0.1302,0.1302,0.1306,0.1306,0.1306,0,0,0,0,0,0,0,0,0,0,0,0,0,0.126,0.1244,0.1278,0.1283,0.1284,0.1299,0.1299,0.1299,0.1302,0.1302,0.1302,0.1302,0.1306,0.1306,0.1306,0.1312,0,0,0.1307,0.1307,0,0,0,0,0,0,0,0,0.1259,0.1261,0.1282,0.1283,0.1284,0.1298,0.1288,0.1303,0.1302,0.1295,0.1302,0.1302,0.1302,0.1303,0.1306,0.1312,0.1312,0.1307,0.1307,0.1308,0.1308,0,0,0,0,0,0,0,0.1258,0.126,0.1286,0.1282,0.1283,0.1286,0.1288,0.1291,0.1298,0.1295,0.1296,0.1299,0.1302,0.1306,0.1307,0.1312,0.1307,0.1307,0.1308,0.1308,0.1323,0.1323,0,0,0,0,0,0,0.1257,0.1259,0.1285,0.1286,0.1272,0.1286,0.1289,0.1293,0.1299,0.13,0.1299,0.1299,0.1306,0.1306,0.1307,0.1315,0.1308,0.1308,0.1308,0.1323,0.1323,0.1323,0,0,0,0,0,0,0.1256,0.1259,0.1284,0.1274,0.1277,0.1287,0.1292,0.1294,0.1299,0.1302,0.1303,0.1303,0.1306,0.1306,0.1313,0.1315,0.1308,0.1308,0.1322,0.1323,0.1323,0.1332,0,0,0,0,0,0,0.1255,0.1259,0.1262,0.1274,0.1278,0.1297,0.1293,0.1294,0.1302,0.1302,0.1306,0.1306,0.1305,0.1313,0.1314,0.1316,0.1309,0.1322,0.1323,0.1323,0.1331,0.1332,0.1333,0,0,0,0,0,0.1254,0.126,0.1262,0.1266,0.1282,0.1297,0.13,0.1305,0.1302,0.1308,0.131,0.1306,0.1316,0.1314,0.1314,0.1316,0.1322,0.1322,0.1323,0.1331,0.1332,0.1333,0,0,0,0,0,0,0.1246,0.1261,0.1264,0.1274,0.1287,0.1298,0.1305,0.1307,0.1313,0.1313,0.1311,0.1312,0.1318,0.1317,0.1315,0.1322,0.1317,0.1318,0.1323,0.1324,0.1325,0.1349,0.1309,0,0,0,0,0,0.1246,0.1255,0.127,0.1278,0.1285,0.1295,0.1301,0.1306,0.1313,0.1316,0.1317,0.1318,0.1321,0.1322,0.1325,0.1331,0.1386,0.1332,0.1333,0.1334,0.1354,0.1474,0.1489,0.1325,0.1325,0.1325,0,0,0.1244,0.1255,0.1259,0.1277,0.1287,0.1297,0.1298,0.1311,0.1317,0.1315,0.1321,0.1323,0.1323,0.133,0.1332,0.1329,0.1401,0.1334,0.1335,0.1356,0.1476,0.1493,0.1507,0.1325,0.1325,0.1325,0,0,0.1246,0.1256,0.1265,0.1276,0.1294,0.1301,0.1305,0.1318,0.1322,0.133,0.1329,0.1339,0.1336,0.1345,0.1346,0.1356,0.1404,0.1347,0.1372,0.1487,0.1503,0.1517,0.1579,0.1599,0.1347,0.1347,0.1347,0,0.1242,0.1256,0.1269,0.1281,0.1291,0.1302,0.1313,0.132,0.1331,0.1347,0.1333,0.1363,0.1348,0.1379,0.137,0.136,0.1427,0.1366,0.1493,0.1508,0.1523,0.1584,0.1606,0.1347,0.1347,0.1347,0.1347,0,0.1251,0.1262,0.1269,0.1287,0.1299,0.1311,0.1325,0.1339,0.1342,0.1356,0.139,0.1388,0.1422,0.1398,0.1379,0.1462,0.1473,0.1484,0.1496,0.1541,0.16,0.1623,0.1348,0.1348,0.1348,0.1347,0,0,0.1239,0.1269,0.127,0.1283,0.1304,0.1317,0.1334,0.1363,0.1403,0.1404,0.1469,0.1443,0.1472,0.1477,0.147,0.1536,0.1658,0.1551,0.1556,0.1623,0.19,0.1795,0.181,0.1714,0.1719,0.1722,0.1889,0,0.124,0.1262,0.1276,0.1296,0.1309,0.1332,0.1353,0.1383,0.142,0.1488,0.1504,0.1558,0.1495,0.1532,0.1589,0.1655,0.1725,0.161,0.1838,0.1844,0.1757,0.1836,0.1658,0.1785,0.1912,0.1916,0.1919,0,0.1242,0.1258,0.1277,0.1315,0.1324,0.1338,0.1404,0.1429,0.1518,0.1558,0.1628,0.167,0.1745,0.1708,0.1859,0.18,0.1855,0.1893,0.1902,0.1825,0.1784,0.1766,0.1822,0.1958,0.1955,0.1952,0.1949,0,0.1229,0.1259,0.1275,0.1285,0.1327,0.1347,0.1375,0.1451,0.1504,0.1633,0.1717,0.1809,0.1891,0.1982,0.2018,0.1984,0.2197,0.217,0.2124,0.2115,0.2017,0.1992,0.2315,0.2315,0.2314,0.2314,0.2313,0,0.1226,0.1238,0.1272,0.1281,0.1311,0.1349,0.1413,0.1463,0.1584,0.1676,0.1765,0.1872,0.1978,0.209,0.2109,0.2177,0.2283,0.2155,0.2172,0.2006,0.1979,0.217,0.2151,0.232,0.2319,0.2317,0.2316,0,0.1207,0.1229,0.1248,0.129,0.1303,0.1328,0.1414,0.149,0.1598,0.1742,0.1799,0.1973,0.2105,0.2172,0.2328,0.2294,0.2364,0.236,0.2118,0.2102,0.2183,0.2162,0.2359,0.2357,0.2356,0.2354,0.2353,0,0.1197,0.1206,0.1239,0.1257,0.1274,0.1321,0.1373,0.1477,0.1579,0.1786,0.1877,0.2051,0.2137,0.2294,0.2285,0.2324,0.2366,0.2185,0.2072,0.2201,0.2199,0.218,0.2162,0.1942,0.1938,0.1934,0.1931,0,0.1176,0.1187,0.1203,0.1242,0.1287,0.1344,0.1435,0.1511,0.1664,0.1792,0.1985,0.2066,0.2172,0.2132,0.2142,0.213,0.2155,0.2111,0.2392,0.1928,0.1814,0.1808,0.1804,0.1899,0.1903,0.1905,0.1907,0.1908,0.1151,0.1159,0.119,0.1231,0.1283,0.1374,0.1434,0.1544,0.1678,0.18,0.1921,0.1942,0.1974,0.1879,0.186,0.1849,0.198,0.1905,0.1916,0.193,0.1821,0.1708,0.1752,0.1754,0.1756,0.1758,0.1759,0,0.1127,0.1152,0.1187,0.1245,0.1319,0.1352,0.1488,0.1521,0.1645,0.168,0.1746,0.1582,0.1538,0.1576,0.1509,0.1526,0.1501,0.1477,0.1437,0.147,0.1499,0.1366,0.1178,0.1176,0.1174,0.1173,0,0,0.1115,0.1144,0.1177,0.1275,0.1327,0.1429,0.1506,0.1487,0.1507,0.1431,0.1379,0.138,0.1496,0.1285,0.1293,0.1234,0.1335,0.1185,0.1652,0.1636,0.1662,0.1749,0.1583,0,0,0,0,0]},{"header":{"parameterUnit":"m.s-1","parameterCategory":2,"la1":30.2991,"la2":30.254,"lo1":-89.0895,"lo2":-89.0444,"dy":0.0017,"dx":0.0017,"nx":28,"ny":28,"refTime":"2025-04-18T21:00:00:Z","depth":"2","parameterNumber":3,"parameterNumberName":"V-component_of_CURRENTS"},"data":[0,0,0,0,0,0,0,0,0,0,0,0,0,0,0,0,0,0,0,0,0,0,0,0,0,0,0,0,0,0,0,0,0,0,0,0,0,0,0,0,0,0,0,0,0,0,0,0,0,0,0,0,0,0,0,0,0,0,-0.0187,-0.0187,0,-0.0245,-0.0245,-0.0246,-0.0273,-0.0273,-0.0273,-0.0273,-0.035,-0.0352,-0.0354,0,0,0,0,0,0,0,0,0,0,0,0,0,-0.0126,-0.0126,-0.0187,-0.0187,-0.0188,-0.0244,-0.0245,-0.0246,-0.0273,-0.0273,-0.0273,-0.0273,-0.0349,-0.0352,-0.0354,0,0,0,0,0,0,0,0,0,0,0,0,0,-0.0165,-0.0127,-0.0187,-0.0208,-0.021,-0.0244,-0.0245,-0.0246,-0.0273,-0.0273,-0.0273,-0.0273,-0.0348,-0.0352,-0.0355,-0.0377,0,0,-0.0365,-0.0366,0,0,0,0,0,0,0,0,-0.0163,-0.0167,-0.0204,-0.0206,-0.0209,-0.0251,-0.0252,-0.0291,-0.0273,-0.025,-0.0273,-0.0273,-0.0318,-0.0324,-0.0336,-0.0381,-0.0384,-0.0365,-0.0367,-0.0368,-0.0369,0,0,0,0,0,0,0,-0.016,-0.0165,-0.021,-0.0205,-0.0208,-0.0223,-0.0229,-0.026,-0.0285,-0.0252,-0.0254,-0.0259,-0.032,-0.0333,-0.0338,-0.0386,-0.0365,-0.0368,-0.037,-0.0371,-0.0463,-0.0463,0,0,0,0,0,0,-0.0151,-0.0163,-0.0208,-0.0212,-0.0185,-0.0224,-0.023,-0.0238,-0.0284,-0.0291,-0.0259,-0.026,-0.0327,-0.0334,-0.0341,-0.0372,-0.0368,-0.0371,-0.0373,-0.0462,-0.0463,-0.0464,0,0,0,0,0,0,-0.0149,-0.0154,-0.0206,-0.0188,-0.0195,-0.0225,-0.0234,-0.0239,-0.0251,-0.029,-0.0297,-0.0265,-0.0327,-0.0336,-0.0372,-0.0375,-0.0373,-0.0376,-0.0462,-0.0463,-0.0463,-0.0433,0,0,0,0,0,0,-0.0147,-0.0153,-0.0156,-0.0187,-0.0196,-0.0226,-0.0234,-0.0241,-0.0254,-0.0256,-0.0297,-0.0304,-0.0328,-0.0367,-0.0375,-0.0379,-0.0378,-0.0461,-0.0462,-0.0463,-0.0434,-0.0433,-0.0432,0,0,0,0,0,-0.0145,-0.015,-0.0156,-0.0162,-0.0199,-0.0226,-0.0232,-0.0253,-0.0254,-0.0262,-0.029,-0.0303,-0.0378,-0.037,-0.0379,-0.0385,-0.0461,-0.0462,-0.0463,-0.0434,-0.0433,-0.0432,0,0,0,0,0,0,-0.0126,-0.0154,-0.0161,-0.0175,-0.0198,-0.023,-0.0239,-0.0251,-0.0279,-0.028,-0.0312,-0.0322,-0.0353,-0.0376,-0.0365,-0.0415,-0.0421,-0.0424,-0.0395,-0.0395,-0.0394,-0.035,-0.0381,0,0,0,0,0,-0.0122,-0.0133,-0.0162,-0.0173,-0.0182,-0.0209,-0.0221,-0.0235,-0.0263,-0.0275,-0.0305,-0.0336,-0.0366,-0.0385,-0.0416,-0.0445,-0.0438,-0.0455,-0.0454,-0.0453,-0.0425,-0.0399,-0.0393,-0.0467,-0.0467,-0.0467,0,0,-0.0118,-0.0135,-0.0141,-0.0169,-0.0187,-0.0202,-0.0216,-0.0235,-0.0245,-0.028,-0.0305,-0.0336,-0.0374,-0.0406,-0.0421,-0.0424,-0.0439,-0.0455,-0.0453,-0.0425,-0.04,-0.0392,-0.0385,-0.0468,-0.0468,-0.0468,0,0,-0.0115,-0.0129,-0.0137,-0.0155,-0.018,-0.0197,-0.0199,-0.0232,-0.0243,-0.0274,-0.0299,-0.0325,-0.038,-0.04,-0.0418,-0.0432,-0.0435,-0.0452,-0.0413,-0.039,-0.0382,-0.0376,-0.0396,-0.0391,-0.0452,-0.0452,-0.0452,0,-0.0107,-0.012,-0.0143,-0.0156,-0.0164,-0.0191,-0.0196,-0.0217,-0.0257,-0.0253,-0.0279,-0.0326,-0.0372,-0.0382,-0.0396,-0.0428,-0.0423,-0.0413,-0.0385,-0.0378,-0.0371,-0.0394,-0.0389,-0.045,-0.045,-0.0451,-0.0451,0,-0.0112,-0.0121,-0.0127,-0.0148,-0.0161,-0.0172,-0.0197,-0.0207,-0.0223,-0.0234,-0.0247,-0.03,-0.0312,-0.035,-0.0383,-0.0364,-0.0382,-0.0384,-0.0378,-0.0361,-0.0388,-0.0383,-0.0448,-0.0449,-0.0449,-0.045,0,0,-0.0092,-0.0122,-0.0123,-0.012,-0.0153,-0.0157,-0.017,-0.0173,-0.0142,-0.0197,-0.0151,-0.0239,-0.0238,-0.0257,-0.0297,-0.0297,-0.0285,-0.0318,-0.0318,-0.0324,-0.0254,-0.0341,-0.0345,-0.0271,-0.0269,-0.0267,-0.0305,0,-0.0084,-0.0094,-0.0113,-0.0111,-0.0113,-0.013,-0.0126,-0.0131,-0.0128,-0.0092,-0.0132,-0.0112,-0.0211,-0.0193,-0.0215,-0.0248,-0.0263,-0.0276,-0.0281,-0.0282,-0.0347,-0.0338,-0.03,-0.0335,-0.03,-0.0299,-0.0299,0,-0.0078,-0.0082,-0.008,-0.0067,-0.0065,-0.0064,-0.0024,-0.0021,0.0012,0.0027,0.0037,0.0028,0.0011,-0.0049,-0.0116,-0.0114,-0.0177,-0.0221,-0.0223,-0.0298,-0.0358,-0.034,-0.0328,-0.0291,-0.0291,-0.0292,-0.0292,0,-0.0042,-0.0051,-0.0038,-0.0042,-0.0041,-0.0022,-0.0008,0.002,0.0075,0.0134,0.02,0.0164,0.0173,0.0106,-0.005,-0.0045,-0.0122,-0.0121,-0.0269,-0.0278,-0.0243,-0.0252,-0.0144,-0.0143,-0.0143,-0.0143,-0.0143,0,-0.0021,-0.0008,-0.0014,-0.0007,0.0038,0.0029,0.0108,0.0124,0.0214,0.0301,0.028,0.033,0.0222,0.0146,0.0017,-0.0144,-0.0081,-0.0251,-0.0279,-0.0242,-0.025,-0.0199,-0.0205,-0.0145,-0.0144,-0.0144,-0.0144,0,0.0015,0.0004,0.0025,0.0039,0.0054,0.0092,0.0185,0.0264,0.0326,0.0454,0.0493,0.0478,0.0356,0.0189,0.0055,-0.0067,-0.0199,-0.0279,-0.0266,-0.0292,-0.0378,-0.0382,-0.0377,-0.038,-0.0383,-0.0385,-0.0387,0,0.0033,0.0042,0.0066,0.0099,0.011,0.0174,0.024,0.0314,0.0414,0.0521,0.0596,0.0528,0.0427,0.0157,-0.004,-0.0274,-0.0304,-0.0376,-0.0356,-0.0367,-0.0394,-0.0394,-0.0395,-0.0312,-0.0313,-0.0314,-0.0315,0,0.0069,0.0074,0.0093,0.0162,0.0225,0.0317,0.0415,0.048,0.0582,0.061,0.0603,0.0529,0.0337,0.01,-0.0182,-0.0321,-0.0328,-0.0401,-0.0375,-0.0278,-0.0313,-0.0339,-0.0339,-0.0322,-0.0322,-0.0321,-0.0321,-0.032,0.0103,0.0127,0.0162,0.0232,0.0328,0.0439,0.0454,0.0532,0.0572,0.0599,0.0564,0.0459,0.0322,-0.0057,-0.0262,-0.0425,-0.0423,-0.0461,-0.0454,-0.0447,-0.0452,-0.0491,-0.0536,-0.0537,-0.0537,-0.0538,-0.0538,0,0.0144,0.0176,0.0241,0.0339,0.0458,0.0501,0.0569,0.0529,0.0461,0.0549,0.0457,0.03,0.0098,-0.0046,-0.0279,-0.0451,-0.0419,-0.0508,-0.0405,-0.0398,-0.0392,-0.0389,-0.046,-0.046,-0.046,-0.046,0,0,0.017,0.0228,0.0258,0.0436,0.0521,0.0559,0.0541,0.0448,0.0442,0.0367,0.0379,0.0357,0.0198,0.0042,-0.0183,-0.0303,-0.0311,-0.0337,-0.0386,-0.0233,-0.0223,-0.0359,-0.0349,0,0,0,0,0]}],[{"header":{"parameterUnit":"m.s-1","parameterCategory":2,"la1":30.2991,"la2":30.254,"lo1":-89.0895,"lo2":-89.0444,"dy":0.0017,"dx":0.0017,"nx":28,"ny":28,"refTime":"2025-04-18T21:00:00:Z","depth":"4","parameterNumber":2,"parameterNumberName":"U-component_of_CURRENTS"},"data":[0,0,0,0,0,0,0,0,0,0,0,0,0,0,0,0,0,0,0,0,0,0,0,0,0,0,0,0,0,0,0,0,0,0,0,0,0,0,0,0,0,0,0,0,0,0,0,0,0,0,0,0,0,0,0,0,0,0,0.0737,0.0737,0,0.0774,0.0774,0.0774,0.0806,0.0806,0.0807,0.0807,0.0845,0.0845,0.0846,0,0,0,0,0,0,0,0,0,0,0,0,0,0.0691,0.0691,0.0737,0.0737,0.0738,0.0774,0.0774,0.0774,0.0806,0.0806,0.0807,0.0807,0.0845,0.0845,0.0846,0,0,0,0,0,0,0,0,0,0,0,0,0,0.0716,0.0692,0.0737,0.0759,0.0761,0.0774,0.0774,0.0774,0.0806,0.0806,0.0807,0.0808,0.0844,0.0845,0.0846,0.0837,0,0,0.0849,0.0849,0,0,0,0,0,0,0,0,0.0715,0.0718,0.0755,0.0757,0.076,0.0787,0.0772,0.0796,0.0805,0.0787,0.0807,0.0808,0.0826,0.0828,0.0832,0.0839,0.084,0.0849,0.0849,0.085,0.085,0,0,0,0,0,0,0,0.0713,0.0716,0.075,0.0756,0.0759,0.0766,0.0771,0.0776,0.0801,0.0789,0.0792,0.0798,0.0827,0.0831,0.0833,0.0841,0.0849,0.0849,0.085,0.085,0.0934,0.0936,0,0,0,0,0,0,0.0711,0.0715,0.0749,0.0751,0.074,0.0767,0.0771,0.0777,0.0801,0.0806,0.0797,0.0799,0.0829,0.0832,0.0834,0.0902,0.085,0.085,0.0851,0.0932,0.0935,0.0936,0,0,0,0,0,0,0.0709,0.0713,0.0747,0.0735,0.074,0.0767,0.0772,0.0777,0.0803,0.0808,0.0812,0.0821,0.083,0.0833,0.086,0.0901,0.0851,0.0851,0.093,0.0933,0.0935,0.0988,0,0,0,0,0,0,0.0708,0.0712,0.0722,0.0735,0.0741,0.0763,0.0772,0.0777,0.0805,0.0808,0.0829,0.0832,0.0831,0.0859,0.0861,0.0901,0.0852,0.0928,0.0932,0.0935,0.0985,0.0993,0.0999,0,0,0,0,0,0.0706,0.0712,0.0722,0.0726,0.075,0.0764,0.0768,0.0788,0.0805,0.0815,0.0836,0.0833,0.0882,0.086,0.0863,0.0904,0.0927,0.0931,0.0934,0.0981,0.0991,0.0999,0,0,0,0,0,0,0.0698,0.0716,0.0727,0.074,0.0756,0.077,0.0782,0.08,0.0824,0.0835,0.0843,0.0847,0.0883,0.0887,0.0864,0.094,0.0909,0.0913,0.0944,0.0953,0.096,0.097,0.0853,0,0,0,0,0,0.0699,0.0709,0.0728,0.0739,0.0749,0.0771,0.0783,0.08,0.082,0.0832,0.0847,0.0872,0.0897,0.092,0.0927,0.0967,0.0952,0.1,0.1008,0.1014,0.1025,0.1048,0.1058,0.0949,0.0949,0.0949,0,0,0.0696,0.0711,0.0715,0.0738,0.0752,0.0762,0.078,0.0804,0.0838,0.0831,0.0878,0.0887,0.0909,0.0951,0.0971,0.0965,0.103,0.1019,0.1024,0.1032,0.1053,0.1063,0.1072,0.0952,0.0951,0.0951,0,0,0.0688,0.0711,0.0714,0.0731,0.0761,0.0771,0.0783,0.0811,0.0854,0.0897,0.0904,0.0942,0.0977,0.1005,0.1026,0.1082,0.1056,0.109,0.1152,0.1174,0.1183,0.1191,0.115,0.1154,0.111,0.1111,0.1111,0,0.0686,0.0697,0.0718,0.073,0.0749,0.0776,0.079,0.0833,0.0871,0.0919,0.0922,0.099,0.1009,0.1072,0.1104,0.11,0.1085,0.1114,0.1183,0.119,0.1197,0.1154,0.1158,0.1114,0.1113,0.1113,0.1113,0,0.0683,0.0697,0.0703,0.0724,0.0745,0.0764,0.0817,0.0861,0.0914,0.0961,0.1041,0.1065,0.1111,0.1132,0.1145,0.1213,0.1172,0.1174,0.1156,0.1211,0.1162,0.1165,0.1118,0.1117,0.1116,0.1115,0,0,0.0666,0.0694,0.07,0.0723,0.0753,0.0778,0.0836,0.0908,0.0969,0.1031,0.1095,0.1179,0.12,0.1224,0.1238,0.1278,0.1312,0.1263,0.1263,0.1215,0.1315,0.1278,0.1276,0.1327,0.1329,0.133,0.1247,0,0.0662,0.0679,0.0701,0.0734,0.0745,0.0801,0.0858,0.0936,0.1003,0.1066,0.1145,0.1199,0.1236,0.1256,0.1308,0.1305,0.1328,0.1331,0.1277,0.1274,0.1229,0.1283,0.1336,0.1249,0.125,0.125,0.125,0,0.0655,0.0669,0.0696,0.0759,0.0777,0.0819,0.092,0.0977,0.1077,0.113,0.1197,0.1226,0.1301,0.1307,0.1362,0.1362,0.1354,0.1348,0.1345,0.1299,0.1244,0.1193,0.1255,0.1254,0.1254,0.1254,0.1253,0,0.0638,0.0676,0.0707,0.0726,0.0791,0.0861,0.0917,0.1016,0.1076,0.1162,0.1186,0.1266,0.1301,0.1327,0.136,0.1357,0.1382,0.1362,0.1308,0.1301,0.1331,0.1324,0.1389,0.1389,0.139,0.139,0.139,0,0.062,0.0655,0.0722,0.0746,0.0823,0.088,0.0975,0.1044,0.111,0.1166,0.1227,0.1254,0.1319,0.1343,0.1348,0.1347,0.1378,0.1324,0.1298,0.1349,0.1345,0.1329,0.1323,0.1387,0.1387,0.1388,0.1389,0,0.0595,0.063,0.0685,0.0778,0.0817,0.089,0.0995,0.1048,0.1123,0.1173,0.1194,0.1258,0.13,0.133,0.1351,0.1335,0.1323,0.1308,0.1331,0.1305,0.1209,0.1207,0.1209,0.1207,0.1206,0.1205,0.1204,0,0.0584,0.0602,0.0707,0.0755,0.0815,0.0911,0.0965,0.105,0.1086,0.1174,0.1182,0.1241,0.1281,0.1252,0.1306,0.1283,0.1289,0.1247,0.1268,0.1227,0.1201,0.1201,0.1201,0.1202,0.1201,0.1201,0.1201,0,0.0565,0.0618,0.0667,0.0749,0.0832,0.0883,0.0971,0.0977,0.1064,0.1125,0.1142,0.1158,0.1195,0.1213,0.1218,0.1209,0.1259,0.1233,0.1235,0.1254,0.1218,0.1194,0.1195,0.1196,0.1197,0.1197,0.1198,0,0.0572,0.0605,0.0675,0.0751,0.0826,0.0853,0.0895,0.0934,0.0967,0.1053,0.1057,0.112,0.1179,0.1174,0.118,0.1177,0.1159,0.1116,0.1124,0.1129,0.1155,0.1101,0.103,0,0,0,0,0,0.0566,0.0601,0.0665,0.0742,0.0803,0.0836,0.0893,0.0922,0.0987,0.0974,0.1011,0.1039,0.1063,0.1092,0.1073,0.1156,0.1167,0.1132,0.1123,0.1171,0.1176,0.1221,0,0,0,0,0,0,0.0568,0.0626,0.0653,0.0709,0.0744,0.0793,0.0816,0.0854,0.0845,0.0916,0.0925,0.099,0.1019,0.1063,0.1057,0.1069,0.1046,0.1175,0.1172,0.1168,0.1173,0.1177,0.1225,0,0,0,0,0]},{"header":{"parameterUnit":"m.s-1","parameterCategory":2,"la1":30.2991,"la2":30.254,"lo1":-89.0895,"lo2":-89.0444,"dy":0.0017,"dx":0.0017,"nx":28,"ny":28,"refTime":"2025-04-18T21:00:00:Z","depth":"4","parameterNumber":3,"parameterNumberName":"V-component_of_CURRENTS"},"data":[0,0,0,0,0,0,0,0,0,0,0,0,0,0,0,0,0,0,0,0,0,0,0,0,0,0,0,0,0,0,0,0,0,0,0,0,0,0,0,0,0,0,0,0,0,0,0,0,0,0,0,0,0,0,0,0,0,0,-0.0046,-0.0046,0,-0.0052,-0.0052,-0.0052,-0.009,-0.0091,-0.0092,-0.0092,-0.0108,-0.0108,-0.0108,0,0,0,0,0,0,0,0,0,0,0,0,0,-0.0065,-0.0064,-0.0046,-0.0046,-0.0046,-0.0052,-0.0052,-0.0052,-0.009,-0.0091,-0.0092,-0.0093,-0.0109,-0.0108,-0.0108,0,0,0,0,0,0,0,0,0,0,0,0,0,-0.0062,-0.0064,-0.0046,-0.0066,-0.0068,-0.0052,-0.0052,-0.0052,-0.0089,-0.0091,-0.0092,-0.0093,-0.0109,-0.0108,-0.0107,-0.0075,0,0,-0.0105,-0.0105,0,0,0,0,0,0,0,0,-0.0062,-0.0061,-0.0063,-0.0064,-0.0067,-0.0072,-0.0065,-0.006,-0.0089,-0.0081,-0.0092,-0.0094,-0.0096,-0.0097,-0.0094,-0.0076,-0.0077,-0.0105,-0.0105,-0.0105,-0.0104,0,0,0,0,0,0,0,-0.0062,-0.0061,-0.0048,-0.0063,-0.0065,-0.0074,-0.0075,-0.0064,-0.0081,-0.0082,-0.0084,-0.0085,-0.0097,-0.0095,-0.0095,-0.0077,-0.0105,-0.0105,-0.0104,-0.0104,-0.0036,-0.0035,0,0,0,0,0,0,-0.006,-0.0061,-0.0048,-0.0048,-0.0068,-0.0072,-0.0073,-0.0068,-0.0081,-0.0084,-0.0084,-0.0087,-0.0095,-0.0096,-0.0096,-0.0069,-0.0105,-0.0104,-0.0104,-0.0037,-0.0036,-0.0034,0,0,0,0,0,0,-0.0061,-0.0059,-0.0048,-0.0056,-0.0055,-0.007,-0.0064,-0.0068,-0.0074,-0.0082,-0.0086,-0.0088,-0.0096,-0.0097,-0.0079,-0.007,-0.0104,-0.0103,-0.0039,-0.0037,-0.0035,-0.0009,0,0,0,0,0,0,-0.0061,-0.0059,-0.0055,-0.0055,-0.0055,-0.003,-0.0063,-0.0067,-0.0072,-0.0076,-0.0086,-0.0089,-0.0097,-0.008,-0.0078,-0.0069,-0.0103,-0.0041,-0.0038,-0.0035,-0.0012,-0.0006,-0.0002,0,0,0,0,0,-0.0062,-0.0042,-0.0055,-0.0053,-0.0048,-0.0029,-0.0029,-0.0045,-0.007,-0.0059,-0.0067,-0.0089,-0.0062,-0.0078,-0.0077,-0.0067,-0.0042,-0.0039,-0.0036,-0.0014,-0.0007,-0.0002,0,0,0,0,0,0,-0.0045,-0.0044,-0.0058,-0.0039,-0.0035,-0.0036,-0.0027,-0.0043,-0.0041,-0.0051,-0.0067,-0.0069,-0.0046,-0.0054,-0.0071,-0.0037,-0.0057,-0.0053,-0.004,-0.0034,-0.0029,-0.0079,-0.0102,0,0,0,0,0,-0.004,-0.0028,-0.0029,-0.0014,-0.0011,-0.0022,-0.002,-0.003,-0.0029,-0.0031,-0.0036,-0.0039,-0.0028,-0.0031,-0.0016,-0.0,-0.0057,0.0008,0.0013,0.0017,-0.0021,-0.01,-0.0107,-0.0024,-0.0024,-0.0024,0,0,-0.0029,-0.0028,-0.0021,-0.001,-0.0011,0.0019,-0.0024,-0.0013,0.0006,-0.0031,-0.0005,-0.0014,-0.0015,0.0007,0.0014,-0.0005,-0.0026,0.0021,0.0024,-0.0017,-0.0098,-0.0107,-0.0115,-0.0021,-0.0022,-0.0022,0,0,0.001,-0.0,0.0026,0.0037,0.004,0.0043,0.0046,0.0047,0.0038,0.0059,0.004,0.0022,0.0053,0.0035,0.0033,0.0073,0.0012,0.0094,0.0063,-0.0011,-0.0021,-0.003,-0.0081,-0.0095,0.0084,0.0084,0.0084,0,0.0022,0.005,0.0038,0.0071,0.0075,0.0058,0.0085,0.0096,0.0102,0.0063,0.0074,0.0046,0.0057,0.0035,0.0055,0.0079,0.0029,0.0039,-0.0011,-0.0021,-0.0031,-0.0082,-0.0098,0.0086,0.0085,0.0085,0.0085,0,0.0082,0.0106,0.0125,0.0157,0.0164,0.0187,0.0191,0.0182,0.016,0.0133,0.0095,0.0097,0.0053,0.0077,0.008,0.0024,0.0013,0.0012,-0.0038,-0.0039,-0.009,-0.0108,0.0088,0.0087,0.0087,0.0086,0,0,0.0102,0.0155,0.016,0.0158,0.0201,0.0194,0.0226,0.0199,0.0151,0.0153,0.0079,0.0101,0.004,0.0033,0.0029,-0.0032,-0.0109,-0.0044,-0.0048,-0.0117,-0.0274,-0.0181,-0.0191,-0.013,-0.0133,-0.0136,-0.0272,0,0.0147,0.0203,0.0222,0.0257,0.0274,0.0253,0.0265,0.0228,0.0188,0.0124,0.0068,0.0027,0.0049,0.0011,-0.0043,-0.0098,-0.016,-0.0073,-0.0246,-0.0251,-0.0188,-0.021,-0.0147,-0.0285,-0.0289,-0.0292,-0.0294,0,0.0192,0.0217,0.0261,0.0245,0.0244,0.0262,0.0184,0.0195,0.0112,0.0066,-0.0011,-0.0052,-0.0127,-0.0104,-0.0239,-0.0189,-0.0237,-0.0279,-0.0285,-0.0235,-0.0192,-0.029,-0.0326,-0.0323,-0.0321,-0.0319,-0.0317,0,0.0169,0.0222,0.0237,0.0249,0.0258,0.0227,0.0215,0.0149,0.0109,0.0014,-0.0046,-0.0141,-0.0191,-0.0283,-0.0321,-0.0311,-0.0469,-0.0465,-0.0431,-0.0425,-0.0483,-0.0473,-0.0584,-0.0584,-0.0584,-0.0583,-0.0583,0,0.0193,0.0197,0.0217,0.0224,0.0193,0.0193,0.013,0.0097,0.0029,-0.0028,-0.0082,-0.0133,-0.0244,-0.0321,-0.0372,-0.0436,-0.0508,-0.0462,-0.0466,-0.0458,-0.0444,-0.0494,-0.0482,-0.0589,-0.0587,-0.0586,-0.0586,0,0.0171,0.0202,0.0204,0.02,0.0191,0.0156,0.0111,0.0052,0.0007,-0.0062,-0.0093,-0.0171,-0.025,-0.033,-0.0469,-0.0484,-0.0565,-0.0563,-0.0536,-0.0532,-0.047,-0.0454,-0.0597,-0.0595,-0.0593,-0.0592,-0.0591,0,0.0166,0.0176,0.0176,0.0163,0.0163,0.0122,0.0089,0.0046,0.0004,-0.0064,-0.0097,-0.0183,-0.0225,-0.0344,-0.0424,-0.0533,-0.0519,-0.0581,-0.055,-0.0488,-0.0478,-0.0465,-0.0452,-0.0588,-0.0588,-0.0588,-0.0587,0,0.015,0.015,0.0148,0.0131,0.0101,0.0069,0.0032,0.0008,-0.0035,-0.0074,-0.0096,-0.0151,-0.0223,-0.0306,-0.0369,-0.0442,-0.0564,-0.0565,-0.057,-0.0541,-0.0479,-0.0468,-0.0457,-0.0582,-0.0583,-0.0583,-0.0583,0,0.0123,0.0111,0.0106,0.0076,0.0048,0.0018,0.0011,-0.0015,-0.0046,-0.0083,-0.008,-0.014,-0.0183,-0.0258,-0.0319,-0.0375,-0.0402,-0.0437,-0.0449,-0.0456,-0.0348,-0.0245,-0.0304,0,0,0,0,0,0.0093,0.0068,0.0046,0.0017,-0.001,-0.0024,-0.0039,-0.0039,-0.0052,-0.0053,-0.0061,-0.0101,-0.0173,-0.0211,-0.0253,-0.0319,-0.0437,-0.0373,-0.0489,-0.0551,-0.0558,-0.0443,0,0,0,0,0,0,0.0069,0.0049,0.0032,-0.0037,-0.0061,-0.0093,-0.0092,-0.0084,-0.0073,-0.007,-0.0095,-0.0111,-0.0178,-0.0142,-0.0253,-0.0274,-0.0353,-0.0409,-0.041,-0.0548,-0.0554,-0.0559,-0.0443,0,0,0,0,0]}]]